Time,TemperatureF,DewpointF,PressureIn,WindDirection,WindDirectionDegrees,WindSpeedMPH,WindSpeedGustMPH,Humidity,HourlyPrecipIn,Conditions,Clouds,dailyrainin,SolarRadiationWatts/m^2,SoftwareType,DateUTC
2013-07-28 00:02:00,74.0,74.0,-100.00,South,190,1.0,6.0,100,0.00,,,0.46,0.000000,,2013-07-28 05:02:00,
2013-07-28 00:12:00,74.0,74.0,-100.00,South,190,1.0,6.0,100,0.00,,,0.46,0.000000,,2013-07-28 05:12:00,
2013-07-28 00:43:00,74.0,74.0,-100.00,South,180,0.0,0.0,100,0.00,,,0.46,0.000000,,2013-07-28 05:43:00,
2013-07-28 00:53:00,74.0,74.0,-100.00,South,180,0.0,0.0,100,0.00,,,0.46,0.000000,,2013-07-28 05:53:00,
2013-07-28 01:02:00,74.0,74.0,-100.00,South,180,0.0,0.0,100,0.00,,,0.46,0.000000,,2013-07-28 06:02:00,
2013-07-28 01:12:00,74.0,74.0,-100.00,South,180,0.0,0.0,100,0.00,,,0.46,0.000000,,2013-07-28 06:12:00,
2013-07-28 01:43:00,74.0,74.0,-100.00,South,174,2.0,7.0,100,0.00,,,0.46,0.000000,,2013-07-28 06:43:00,
2013-07-28 01:53:00,74.0,74.0,-100.00,South,174,2.0,7.0,100,0.00,,,0.46,0.000000,,2013-07-28 06:53:00,
2013-07-28 02:02:00,74.0,74.0,-100.00,South,174,2.0,7.0,100,0.00,,,0.46,0.000000,,2013-07-28 07:02:00,
2013-07-28 02:12:00,74.0,74.0,-100.00,South,174,2.0,7.0,100,0.00,,,0.46,0.000000,,2013-07-28 07:12:00,
2013-07-28 02:43:00,74.0,74.0,-100.00,SSE,156,0.0,3.0,100,0.00,,,0.46,0.000000,,2013-07-28 07:43:00,
2013-07-28 02:53:00,74.0,74.0,-100.00,SSE,156,0.0,3.0,100,0.00,,,0.46,0.000000,,2013-07-28 07:53:00,
2013-07-28 03:02:00,74.0,74.0,-100.00,SSE,156,0.0,3.0,100,0.00,,,0.46,0.000000,,2013-07-28 08:02:00,
2013-07-28 03:12:00,74.0,74.0,-100.00,SSE,156,0.0,3.0,100,0.00,,,0.46,0.000000,,2013-07-28 08:12:00,
2013-07-28 03:43:00,74.0,74.0,-100.00,South,170,0.0,0.0,100,0.00,,,0.46,0.000000,,2013-07-28 08:43:00,
2013-07-28 03:53:00,74.0,74.0,-100.00,South,170,0.0,0.0,100,0.00,,,0.46,0.000000,,2013-07-28 08:53:00,
2013-07-28 04:02:00,74.0,74.0,-100.00,South,170,0.0,0.0,100,0.00,,,0.46,0.000000,,2013-07-28 09:02:00,
2013-07-28 04:12:00,74.0,74.0,-100.00,South,170,0.0,0.0,100,0.00,,,0.46,0.000000,,2013-07-28 09:12:00,
2013-07-28 04:43:00,74.0,74.0,-100.00,South,175,0.0,0.0,100,0.00,,,0.46,0.000000,,2013-07-28 09:43:00,
2013-07-28 04:53:00,74.0,74.0,-100.00,South,175,0.0,0.0,100,0.00,,,0.46,0.000000,,2013-07-28 09:53:00,
2013-07-28 05:02:00,74.0,74.0,-100.00,South,175,0.0,0.0,100,0.00,,,0.46,0.000000,,2013-07-28 10:02:00,
2013-07-28 05:12:00,74.0,74.0,-100.00,South,175,0.0,0.0,100,0.00,,,0.46,0.000000,,2013-07-28 10:12:00,
2013-07-28 05:42:00,73.0,73.0,-100.00,SSE,150,0.0,0.0,100,0.00,,,0.46,0.000000,,2013-07-28 10:42:00,
2013-07-28 05:53:00,73.0,73.0,-100.00,SSE,150,0.0,0.0,100,0.00,,,0.46,0.000000,,2013-07-28 10:53:00,
2013-07-28 06:02:00,73.0,73.0,-100.00,SSE,150,0.0,0.0,100,0.00,,,0.46,0.000000,,2013-07-28 11:02:00,
2013-07-28 06:12:00,73.0,73.0,-100.00,SSE,150,0.0,0.0,100,0.00,,,0.46,0.000000,,2013-07-28 11:12:00,
2013-07-28 06:43:00,73.0,73.0,-100.00,South,169,0.0,0.0,100,0.02,,,0.48,2.000000,,2013-07-28 11:43:00,
2013-07-28 06:54:00,73.0,73.0,-100.00,South,169,0.0,0.0,100,0.02,,,0.48,2.000000,,2013-07-28 11:54:00,
2013-07-28 07:02:00,73.0,73.0,-100.00,South,169,0.0,0.0,100,0.02,,,0.48,2.000000,,2013-07-28 12:02:00,
2013-07-28 07:12:00,73.0,73.0,-100.00,South,169,0.0,0.0,100,0.02,,,0.48,2.000000,,2013-07-28 12:12:00,
2013-07-28 07:43:00,73.0,73.0,-100.00,South,189,3.0,9.0,100,0.01,,,0.49,16.000000,,2013-07-28 12:43:00,
2013-07-28 07:53:00,73.0,73.0,-100.00,South,189,3.0,9.0,100,0.01,,,0.49,16.000000,,2013-07-28 12:53:00,
2013-07-28 08:02:00,73.0,73.0,-100.00,South,189,3.0,9.0,100,0.01,,,0.49,16.000000,,2013-07-28 13:02:00,
2013-07-28 08:12:00,73.0,73.0,-100.00,South,189,3.0,9.0,100,0.01,,,0.49,16.000000,,2013-07-28 13:12:00,
2013-07-28 08:43:00,75.0,75.0,-100.00,South,188,3.0,7.0,100,0.00,,,0.49,87.000000,,2013-07-28 13:43:00,
2013-07-28 08:53:00,75.0,75.0,-100.00,South,188,3.0,7.0,100,0.00,,,0.49,87.000000,,2013-07-28 13:53:00,
2013-07-28 09:02:00,75.0,75.0,-100.00,South,188,3.0,7.0,100,0.00,,,0.49,87.000000,,2013-07-28 14:02:00,
2013-07-28 09:12:00,75.0,75.0,-100.00,South,188,3.0,7.0,100,0.00,,,0.49,87.000000,,2013-07-28 14:12:00,
2013-07-28 09:43:00,78.0,76.0,-100.00,South,172,2.0,7.0,94,0.00,,,0.49,270.000000,,2013-07-28 14:43:00,
2013-07-28 09:53:00,78.0,76.0,-100.00,South,172,2.0,7.0,94,0.00,,,0.49,270.000000,,2013-07-28 14:53:00,
2013-07-28 10:03:00,78.0,76.0,-100.00,South,172,2.0,7.0,94,0.00,,,0.49,270.000000,,2013-07-28 15:03:00,
2013-07-28 10:13:00,78.0,76.0,-100.00,South,172,2.0,7.0,94,0.00,,,0.49,270.000000,,2013-07-28 15:13:00,
2013-07-28 10:43:00,83.0,76.0,-100.00,SSE,158,2.0,7.0,80,0.00,,,0.49,432.000000,,2013-07-28 15:43:00,
2013-07-28 10:53:00,83.0,76.0,-100.00,SSE,158,2.0,7.0,80,0.00,,,0.49,432.000000,,2013-07-28 15:53:00,
2013-07-28 11:03:00,83.0,76.0,-100.00,SSE,158,2.0,7.0,80,0.00,,,0.49,432.000000,,2013-07-28 16:03:00,
2013-07-28 11:12:00,83.0,76.0,-100.00,SSE,158,2.0,7.0,80,0.00,,,0.49,432.000000,,2013-07-28 16:12:00,
2013-07-28 11:43:00,83.0,77.0,-100.00,SE,139,3.0,8.0,82,0.00,,,0.49,497.000000,,2013-07-28 16:43:00,
2013-07-28 11:52:00,83.0,77.0,-100.00,SE,139,3.0,8.0,82,0.00,,,0.49,497.000000,,2013-07-28 16:52:00,
2013-07-28 12:02:00,83.0,77.0,-100.00,SE,139,3.0,8.0,82,0.00,,,0.49,497.000000,,2013-07-28 17:02:00,
2013-07-28 12:13:00,83.0,77.0,-100.00,SE,139,3.0,8.0,82,0.00,,,0.49,497.000000,,2013-07-28 17:13:00,
2013-07-28 12:43:00,88.0,76.0,-100.00,SSE,162,3.0,8.0,67,0.00,,,0.49,728.000000,,2013-07-28 17:43:00,
2013-07-28 12:53:00,88.0,76.0,-100.00,SSE,162,3.0,8.0,67,0.00,,,0.49,728.000000,,2013-07-28 17:53:00,
2013-07-28 13:03:00,88.0,76.0,-100.00,SSE,162,3.0,8.0,67,0.00,,,0.49,728.000000,,2013-07-28 18:03:00,
2013-07-28 13:13:00,88.0,76.0,-100.00,SSE,162,3.0,8.0,67,0.00,,,0.49,728.000000,,2013-07-28 18:13:00,
2013-07-28 13:43:00,90.0,75.0,-100.00,SSE,152,4.0,8.0,61,0.00,,,0.34,908.000000,,2013-07-28 18:43:00,
2013-07-28 13:52:00,90.0,75.0,-100.00,SSE,152,4.0,8.0,61,0.00,,,0.34,908.000000,,2013-07-28 18:52:00,
2013-07-28 14:03:00,90.0,75.0,-100.00,SSE,152,4.0,8.0,61,0.00,,,0.34,908.000000,,2013-07-28 19:03:00,
2013-07-28 14:12:00,90.0,75.0,-100.00,SSE,152,4.0,8.0,61,0.00,,,0.34,908.000000,,2013-07-28 19:12:00,
2013-07-28 14:43:00,88.0,76.0,-100.00,SW,229,0.0,7.0,67,0.00,,,0.03,492.000000,,2013-07-28 19:43:00,
2013-07-28 14:53:00,88.0,76.0,-100.00,SW,229,0.0,7.0,67,0.00,,,0.03,492.000000,,2013-07-28 19:53:00,
2013-07-28 15:03:00,88.0,76.0,-100.00,SW,229,0.0,7.0,67,0.00,,,0.03,492.000000,,2013-07-28 20:03:00,
2013-07-28 15:13:00,88.0,76.0,-100.00,SW,229,0.0,7.0,67,0.00,,,0.03,492.000000,,2013-07-28 20:13:00,
2013-07-28 15:43:00,93.0,77.0,-100.00,South,170,1.0,6.0,59,0.00,,,0.03,846.000000,,2013-07-28 20:43:00,
2013-07-28 15:53:00,93.0,77.0,-100.00,South,170,1.0,6.0,59,0.00,,,0.03,846.000000,,2013-07-28 20:53:00,
2013-07-28 16:03:00,93.0,77.0,-100.00,South,170,1.0,6.0,59,0.00,,,0.03,846.000000,,2013-07-28 21:03:00,
2013-07-28 16:13:00,93.0,77.0,-100.00,South,170,1.0,6.0,59,0.00,,,0.03,846.000000,,2013-07-28 21:13:00,
2013-07-28 16:44:00,89.0,76.0,-100.00,SSE,148,2.0,8.0,65,0.00,,,0.03,524.000000,,2013-07-28 21:44:00,
2013-07-28 16:52:00,89.0,76.0,-100.00,SSE,148,2.0,8.0,65,0.00,,,0.03,524.000000,,2013-07-28 21:52:00,
2013-07-28 17:02:00,89.0,76.0,-100.00,SSE,148,2.0,8.0,65,0.00,,,0.03,524.000000,,2013-07-28 22:02:00,
2013-07-28 17:12:00,89.0,76.0,-100.00,SSE,148,2.0,8.0,65,0.00,,,0.03,524.000000,,2013-07-28 22:12:00,
2013-07-28 17:43:00,88.0,76.0,-100.00,South,183,4.0,10.0,68,0.00,,,0.03,295.000000,,2013-07-28 22:43:00,
2013-07-28 17:52:00,88.0,76.0,-100.00,South,183,4.0,10.0,68,0.00,,,0.03,295.000000,,2013-07-28 22:52:00,
2013-07-28 18:03:00,88.0,76.0,-100.00,South,183,4.0,10.0,68,0.00,,,0.03,295.000000,,2013-07-28 23:03:00,
2013-07-28 18:12:00,88.0,76.0,-100.00,South,183,4.0,10.0,68,0.00,,,0.03,295.000000,,2013-07-28 23:12:00,
2013-07-28 18:43:00,81.0,77.0,-100.00,SW,224,2.0,9.0,88,0.01,,,0.04,80.000000,,2013-07-28 23:43:00,
2013-07-28 18:53:00,81.0,77.0,-100.00,SW,224,2.0,9.0,88,0.01,,,0.04,80.000000,,2013-07-28 23:53:00,
2013-07-28 19:03:00,81.0,77.0,-100.00,SW,224,2.0,9.0,88,0.01,,,0.04,80.000000,,2013-07-29 00:03:00,
2013-07-28 19:12:00,81.0,77.0,-100.00,SW,224,2.0,9.0,88,0.01,,,0.04,80.000000,,2013-07-29 00:12:00,
2013-07-28 19:43:00,80.0,77.0,-100.00,South,190,3.0,7.0,90,0.00,,,-99.99,71.000000,,2013-07-29 00:43:00,
2013-07-28 19:52:00,80.0,77.0,-100.00,South,190,3.0,7.0,90,0.00,,,-99.99,71.000000,,2013-07-29 00:52:00,
2013-07-28 20:02:00,80.0,77.0,-100.00,South,190,3.0,7.0,90,0.00,,,-99.99,71.000000,,2013-07-29 01:02:00,
2013-07-28 20:14:00,80.0,77.0,-100.00,South,190,3.0,7.0,90,0.00,,,-99.99,71.000000,,2013-07-29 01:14:00,
2013-07-28 20:47:00,78.0,77.0,-100.00,South,180,1.0,6.0,96,0.00,,,0.04,6.000000,,2013-07-29 01:47:00,
2013-07-28 21:01:00,78.0,77.0,-100.00,South,180,1.0,6.0,96,0.00,,,0.04,6.000000,,2013-07-29 02:01:00,
2013-07-28 21:06:00,78.0,77.0,-100.00,South,180,1.0,6.0,96,0.00,,,0.04,6.000000,,2013-07-29 02:06:00,
2013-07-28 21:14:00,78.0,77.0,-100.00,South,180,1.0,6.0,96,0.00,,,0.04,6.000000,,2013-07-29 02:14:00,
2013-07-28 21:16:00,78.0,78.0,-100.00,NE,44,0.0,5.0,99,0.00,,,0.04,0.000000,,2013-07-29 02:16:00,
2013-07-28 21:50:00,78.0,78.0,-100.00,NE,44,0.0,5.0,99,0.00,,,0.04,0.000000,,2013-07-29 02:50:00,
2013-07-28 22:05:00,78.0,78.0,-100.00,NE,44,0.0,5.0,99,0.00,,,0.04,0.000000,,2013-07-29 03:05:00,
2013-07-28 22:50:00,76.0,73.0,-100.00,NNW,338,2.0,12.0,89,0.01,,,0.05,0.000000,,2013-07-29 03:50:00,
2013-07-28 22:58:00,76.0,73.0,-100.00,NNW,338,2.0,12.0,89,0.01,,,0.05,0.000000,,2013-07-29 03:58:00,
2013-07-28 23:02:00,76.0,73.0,-100.00,NNW,338,2.0,12.0,89,0.01,,,0.05,0.000000,,2013-07-29 04:02:00,
2013-07-28 23:12:00,76.0,73.0,-100.00,NNW,338,2.0,12.0,89,0.01,,,0.05,0.000000,,2013-07-29 04:12:00,
2013-07-28 23:43:00,74.0,74.0,-100.00,East,88,0.0,6.0,100,0.00,,,0.05,0.000000,,2013-07-29 04:43:00,
2013-07-28 23:53:00,74.0,74.0,-100.00,East,88,0.0,6.0,100,0.00,,,0.05,0.000000,,2013-07-29 04:53:00,